sat.trackr.live / text

‹ back to catalog

SMOS

NORAD 36036 · 2009-059A

PAYLOAD ACTIVE UNKNOWN

§ Identity

Operator
Country
ESA
Launch date
2009-11-02
Launch site
PLMSC
Launch vehicle
Mass (kg)
RCS (m²)
2.87

Purposes: earth_obs

External: N2YO · Heavens-Above · Gunter

§ Orbital elements

Epoch: 2026-09-19T23:35:00.546144Z

Period
100.02 min
Inclination
98.4434°
Eccentricity
0.0001276
Mean motion
14.39767527 rev/d
Perigee alt
758.4 km
Apogee alt
760.2 km
Semi-major
7,137.4 km
B*
7.1124e-5
RAAN
88.9414°
Arg perigee
78.2335°
Mean anomaly
281.8996°
Rev number
88,709

§ Raw data

SMOS1 36036U 09059A   26262.98264521  .00000179  00000+0  71124-4 0  99912 36036  98.4434  88.9414 0001276  78.2335 281.8996 14.39767527887096

JSON: /api/v1/satellites/36036 · /tle

For live sub-satellite position, see the globe view (requires WebGL).

§ Visibility from observer

Set your observer location to see the next 7 days of passes ≥ 10°. The values pass through the URL so the page stays shareable.

No JS? Fill the form by hand. The geolocation button needs JavaScript.